[[{"header":{"parameterUnit":"m.s-1","parameterCategory":1,"la1":30.2991,"la2":30.254,"lo1":-89.0895,"lo2":-89.0444,"dy":0.0017,"dx":0.0017,"nx":28,"ny":28,"refTime":"2023-06-26T21:00:00:Z","depth":0,"parameterNumber":2,"parameterNumberName":"U-component_of_WINDS"},"data":[0,0,0,0,0,0,0,0,0,0,0,0,0,0,0,0,0,0,0,0,0,0,0,0,0,0,0,0,0,0,0,0,0,0,0,0,0,0,0,0,0,0,0,0,0,0,0,0,0,0,0,0,0,0,0,0,0,0,0.5676,0.5678,0,0.5829,0.5831,0.5833,0.5901,0.5901,0.5901,0.5901,0.6058,0.6062,0.6066,0,0,0,0,0,0,0,0,0,0,0,0,0,0.5442,0.5446,0.5676,0.5678,0.568,0.5829,0.5831,0.5833,0.5901,0.5901,0.5901,0.59,0.6056,0.6061,0.6067,0,0,0,0,0,0,0,0,0,0,0,0,0,0.5564,0.5447,0.5676,0.5732,0.5738,0.5829,0.5831,0.5834,0.5901,0.5901,0.5901,0.59,0.6055,0.6061,0.6067,0.6114,0,0,0.6087,0.609,0,0,0,0,0,0,0,0,0.5557,0.5573,0.5722,0.5728,0.5736,0.5846,0.5806,0.5928,0.5901,0.5839,0.59,0.59,0.5987,0.5999,0.6029,0.6121,0.6128,0.6088,0.6092,0.6095,0.6097,0,0,0,0,0,0,0,0.5549,0.5567,0.5737,0.5724,0.5732,0.5749,0.5766,0.583,0.5913,0.5845,0.585,0.5867,0.5991,0.6022,0.6033,0.613,0.6088,0.6094,0.6098,0.61,0.6268,0.6268,0,0,0,0,0,0,0.5531,0.5559,0.5732,0.5741,0.5644,0.5754,0.5773,0.5811,0.5913,0.5928,0.5867,0.587,0.6011,0.6025,0.6039,0.61,0.6095,0.6101,0.6105,0.6267,0.6268,0.6268,0,0,0,0,0,0,0.5526,0.5546,0.5726,0.5652,0.5676,0.5758,0.58,0.5814,0.5845,0.593,0.5945,0.5884,0.6012,0.603,0.6094,0.6106,0.6104,0.611,0.6267,0.6267,0.6268,0.6222,0,0,0,0,0,0,0.5519,0.5543,0.5562,0.5652,0.568,0.5779,0.5801,0.5817,0.5856,0.5861,0.5949,0.5964,0.6013,0.6084,0.6101,0.6115,0.6115,0.6266,0.6267,0.6268,0.6223,0.6221,0.6219,0,0,0,0,0,0.551,0.5543,0.5563,0.5583,0.5704,0.5779,0.5795,0.5851,0.5857,0.5876,0.593,0.5961,0.6102,0.609,0.611,0.6126,0.6265,0.6267,0.6268,0.6223,0.6221,0.6219,0,0,0,0,0,0,0.5453,0.5556,0.5579,0.5641,0.5701,0.5791,0.5817,0.5847,0.5906,0.5908,0.5975,0.5994,0.6053,0.6096,0.6081,0.6176,0.6186,0.6191,0.6146,0.6145,0.6143,0.6132,0.612,0,0,0,0,0,0.5447,0.5499,0.5587,0.5634,0.5662,0.5734,0.5769,0.5806,0.5871,0.5896,0.5956,0.6017,0.6075,0.6112,0.6171,0.6229,0.6249,0.625,0.6248,0.6246,0.625,0.6284,0.6285,0.6272,0.6272,0.6272,0,0,0.5437,0.5499,0.5528,0.5624,0.5674,0.5727,0.5755,0.5809,0.5849,0.5905,0.597,0.6015,0.6088,0.615,0.618,0.6187,0.6258,0.6248,0.6246,0.6251,0.6285,0.6287,0.6288,0.6273,0.6273,0.6273,0,0,0.5444,0.5497,0.5542,0.5592,0.5668,0.5716,0.5726,0.5811,0.5843,0.5909,0.5953,0.6001,0.61,0.615,0.6188,0.6214,0.6244,0.6231,0.6223,0.6255,0.6256,0.6258,0.6267,0.627,0.6234,0.6234,0.6234,0,0.5422,0.5503,0.5561,0.5613,0.5654,0.5707,0.5753,0.5798,0.5889,0.5916,0.5923,0.6048,0.6101,0.6175,0.6181,0.6211,0.6225,0.6222,0.6251,0.6253,0.6255,0.6265,0.6268,0.6232,0.6233,0.6233,0.6233,0,0.5471,0.5526,0.5553,0.564,0.5684,0.5732,0.5798,0.5835,0.5869,0.5915,0.5982,0.6047,0.6119,0.6139,0.6173,0.6218,0.6221,0.6238,0.625,0.6253,0.6264,0.6268,0.6229,0.623,0.6231,0.6231,0,0,0.5448,0.5566,0.5575,0.5614,0.5702,0.5746,0.5797,0.5867,0.5898,0.5959,0.6003,0.6085,0.6102,0.6146,0.6185,0.6214,0.623,0.6228,0.6231,0.6227,0.6284,0.627,0.6274,0.625,0.6251,0.6252,0.6278,0,0.5467,0.5561,0.5615,0.5686,0.5738,0.5789,0.5833,0.5891,0.5936,0.5986,0.6036,0.6093,0.6111,0.6138,0.6168,0.6221,0.6243,0.622,0.6293,0.6294,0.6273,0.6279,0.6265,0.6287,0.6283,0.6283,0.6284,0,0.5504,0.5563,0.564,0.5721,0.5745,0.5784,0.5853,0.59,0.5967,0.5998,0.6046,0.6085,0.6141,0.6147,0.6225,0.6209,0.6241,0.6272,0.6274,0.6284,0.629,0.6289,0.6295,0.6298,0.6291,0.629,0.629,0,0.5479,0.5578,0.5637,0.567,0.5766,0.5792,0.5834,0.5901,0.5939,0.5999,0.6025,0.6091,0.6127,0.6177,0.6233,0.6233,0.6305,0.6316,0.6332,0.6331,0.6346,0.6344,0.6357,0.6366,0.6365,0.6365,0.6365,0,0.5496,0.5541,0.5627,0.5663,0.5715,0.5776,0.5826,0.5871,0.593,0.5976,0.6023,0.6065,0.6136,0.6187,0.6231,0.6289,0.6305,0.6331,0.6342,0.6327,0.6324,0.635,0.635,0.6366,0.6366,0.6366,0.6366,0,0.5477,0.5537,0.5605,0.569,0.5713,0.5747,0.582,0.5857,0.5904,0.5961,0.5978,0.6052,0.6114,0.6174,0.6258,0.6288,0.6345,0.636,0.6322,0.6328,0.6341,0.6339,0.6372,0.6379,0.6381,0.6381,0.6381,0,0.5485,0.552,0.561,0.5644,0.5684,0.5738,0.5778,0.5839,0.5879,0.5958,0.5985,0.605,0.6106,0.6203,0.6264,0.6328,0.6345,0.6352,0.6355,0.6338,0.6346,0.6343,0.6347,0.635,0.635,0.635,0.6349,0,0.5491,0.5519,0.5574,0.564,0.5686,0.5741,0.5798,0.5823,0.5895,0.5937,0.6001,0.6044,0.6129,0.6193,0.6264,0.6307,0.634,0.6348,0.6355,0.634,0.6317,0.633,0.6318,0.6347,0.6347,0.6348,0.6348,0.6348,0.5486,0.552,0.5588,0.5648,0.5697,0.5749,0.5788,0.5839,0.5893,0.5967,0.6,0.6064,0.6131,0.6229,0.6271,0.6323,0.6331,0.6341,0.6344,0.6346,0.6342,0.6308,0.6336,0.6336,0.6336,0.6336,0.6336,0,0.5495,0.5541,0.5596,0.5674,0.5721,0.5747,0.5811,0.5849,0.5905,0.5964,0.6018,0.6091,0.6153,0.6219,0.6285,0.6314,0.6331,0.6329,0.6328,0.6337,0.6331,0.6318,0.6314,0.6314,0.6314,0.6314,0.6314,0.6314,0.5505,0.5564,0.56,0.5683,0.573,0.5793,0.5827,0.5875,0.5922,0.6002,0.6054,0.6096,0.6158,0.6229,0.6287,0.6305,0.6327,0.6322,0.6344,0.6336,0.6338,0.6339,0.6328,0.6326,0.6326,0.6346,0.6346,0.6346]},{"header":{"parameterUnit":"m.s-1","parameterCategory":1,"la1":30.2991,"la2":30.254,"lo1":-89.0895,"lo2":-89.0444,"dy":0.0017,"dx":0.0017,"nx":28,"ny":28,"refTime":"2023-06-26T21:00:00:Z","depth":0,"parameterNumber":3,"parameterNumberName":"V-component_of_WINDS"},"data":[0,0,0,0,0,0,0,0,0,0,0,0,0,0,0,0,0,0,0,0,0,0,0,0,0,0,0,0,0,0,0,0,0,0,0,0,0,0,0,0,0,0,0,0,0,0,0,0,0,0,0,0,0,0,0,0,0,0,3.2935,3.2935,0,3.293,3.293,3.293,3.2857,3.2855,3.2853,3.2851,3.2846,3.2847,3.2849,0,0,0,0,0,0,0,0,0,0,0,0,0,3.2881,3.2882,3.2935,3.2935,3.2935,3.293,3.293,3.293,3.2857,3.2855,3.2853,3.2851,3.2845,3.2847,3.2849,0,0,0,0,0,0,0,0,0,0,0,0,0,3.2893,3.2883,3.2935,3.2898,3.2895,3.293,3.293,3.293,3.2858,3.2855,3.2852,3.2849,3.2844,3.2847,3.2849,3.2919,0,0,3.2856,3.2857,0,0,0,0,0,0,0,0,3.2892,3.2895,3.2903,3.2901,3.2897,3.2891,3.2908,3.2926,3.2858,3.2872,3.2851,3.2848,3.2863,3.2864,3.2869,3.2919,3.2919,3.2857,3.2858,3.2859,3.286,0,0,0,0,0,0,0,3.2892,3.2895,3.2933,3.2904,3.29,3.2881,3.288,3.2912,3.2883,3.287,3.2865,3.2865,3.2861,3.2867,3.2868,3.2919,3.2856,3.2859,3.286,3.2861,3.3026,3.3029,0,0,0,0,0,0,3.2896,3.2895,3.2933,3.2933,3.2888,3.2885,3.2883,3.2896,3.2882,3.2878,3.2868,3.2862,3.2864,3.2865,3.2868,3.2949,3.2859,3.2861,3.2862,3.3023,3.3027,3.303,0,0,0,0,0,0,3.2895,3.29,3.2933,3.2912,3.2915,3.2888,3.2903,3.2897,3.2903,3.288,3.2875,3.2879,3.2862,3.2864,3.2907,3.2948,3.2862,3.2864,3.3019,3.3024,3.3028,3.3112,0,0,0,0,0,0,3.2894,3.29,3.2927,3.2913,3.2916,3.2973,3.2906,3.2899,3.2907,3.29,3.289,3.2885,3.286,3.2904,3.2909,3.2949,3.2866,3.3016,3.3021,3.3027,3.3105,3.3119,3.313,0,0,0,0,0,3.2892,3.295,3.2928,3.2933,3.2949,3.2976,3.2977,3.2947,3.2911,3.2937,3.2923,3.2886,3.2942,3.2909,3.2914,3.2956,3.3013,3.302,3.3026,3.31,3.3116,3.313,0,0,0,0,0,0,3.2969,3.2948,3.2923,3.2979,3.298,3.2963,3.2995,3.2965,3.2976,3.2968,3.2929,3.2928,3.2977,3.297,3.2933,3.3023,3.2971,3.2979,3.3025,3.304,3.3052,3.3053,3.2868,0,0,0,0,0,3.2992,3.3016,3.2996,3.3047,3.3049,3.3022,3.3033,3.3009,3.3008,3.3008,3.2996,3.2997,3.3014,3.3027,3.3042,3.3104,3.3101,3.3135,3.3147,3.3158,3.3165,3.3198,3.3213,3.3052,3.3052,3.3051,0,0,3.3041,3.3032,3.3049,3.3062,3.306,3.3085,3.3023,3.3052,3.307,3.3012,3.3052,3.3044,3.3041,3.3094,3.3117,3.309,3.3209,3.3166,3.3175,3.3176,3.3206,3.3221,3.3235,3.3056,3.3055,3.3055,0,0,3.3142,3.3138,3.318,3.3179,3.3177,3.3159,3.3169,3.3157,3.315,3.3189,3.3146,3.3167,3.3198,3.3199,3.3203,3.3305,3.3271,3.3311,3.3375,3.3407,3.342,3.3431,3.3467,3.3481,3.3318,3.3318,3.3318,0,3.3203,3.3239,3.3206,3.3238,3.3245,3.3194,3.3236,3.3237,3.3239,3.3245,3.3215,3.3254,3.3249,3.3301,3.3326,3.3331,3.3341,3.3312,3.3421,3.3431,3.3441,3.3476,3.349,3.3323,3.3323,3.3322,3.3322,0,3.3314,3.3339,3.3374,3.3378,3.3389,3.3426,3.3398,3.3413,3.3388,3.3374,3.3414,3.3406,3.3419,3.343,3.3406,3.3479,3.3462,3.3428,3.3375,3.3462,3.3494,3.3507,3.333,3.3328,3.3327,3.3326,0,0,3.3463,3.3448,3.3462,3.3463,3.3457,3.3476,3.351,3.3523,3.3537,3.354,3.3568,3.3596,3.3564,3.3569,3.3545,3.3573,3.3654,3.3534,3.3534,3.3557,3.3734,3.3761,3.3776,3.3632,3.3634,3.3636,3.3734,0,3.3561,3.362,3.3591,3.3653,3.3676,3.3628,3.3659,3.3658,3.3645,3.3663,3.3648,3.3669,3.3625,3.3627,3.3653,3.3639,3.3689,3.3632,3.3658,3.3659,3.366,3.3793,3.3821,3.3914,3.3747,3.3749,3.375,0,3.3683,3.3692,3.3757,3.3746,3.3755,3.3783,3.3792,3.381,3.3808,3.3797,3.3803,3.3772,3.3805,3.3753,3.3798,3.376,3.3769,3.3763,3.3766,3.3768,3.371,3.3798,3.3943,3.3957,3.3769,3.3768,3.3766,0,3.3785,3.3814,3.3856,3.3859,3.3848,3.3868,3.3864,3.386,3.387,3.3878,3.3883,3.3895,3.3902,3.3912,3.3885,3.385,3.3934,3.388,3.3926,3.3927,3.3946,3.3945,3.4094,3.3952,3.3952,3.3951,3.3951,0,3.3898,3.3939,3.3902,3.3928,3.3973,3.394,3.3985,3.3976,3.3973,3.3996,3.3955,3.3978,3.3942,3.3961,3.394,3.3981,3.3984,3.3976,3.397,3.398,3.3981,3.3985,3.3978,3.3955,3.3954,3.3953,3.3953,0,3.402,3.3997,3.404,3.4026,3.4023,3.4057,3.4045,3.4069,3.4053,3.4083,3.4089,3.4064,3.4085,3.4059,3.4077,3.4064,3.4119,3.4103,3.412,3.4116,3.4163,3.4159,3.432,3.434,3.4185,3.4186,3.4188,0,3.4093,3.4124,3.4114,3.4127,3.4125,3.4147,3.4156,3.4124,3.4136,3.4137,3.416,3.4177,3.4189,3.4225,3.4208,3.4222,3.4207,3.4262,3.4208,3.4217,3.4208,3.4206,3.4209,3.4273,3.4275,3.4277,3.4278,0,3.4226,3.4213,3.4229,3.4241,3.4253,3.4261,3.4266,3.4279,3.4245,3.426,3.4281,3.4291,3.4309,3.4327,3.4336,3.4332,3.43,3.4295,3.4306,3.4317,3.4325,3.4322,3.415,3.4291,3.429,3.4289,3.4288,3.4288,3.4326,3.4351,3.4348,3.4367,3.4367,3.4372,3.4394,3.4381,3.4398,3.4411,3.4391,3.4417,3.4415,3.4424,3.4424,3.4443,3.442,3.4436,3.444,3.4445,3.4452,3.4322,3.4445,3.4445,3.4444,3.4444,3.4444,0,3.4456,3.4452,3.447,3.4478,3.4493,3.4461,3.4465,3.4479,3.4503,3.4503,3.4516,3.454,3.4557,3.4543,3.4557,3.4576,3.4561,3.458,3.4579,3.4578,3.4473,3.4462,3.4592,3.4592,3.4592,3.4592,3.4592,3.4592,3.4526,3.4568,3.4554,3.4595,3.459,3.4616,3.4621,3.4626,3.4626,3.4655,3.4669,3.4659,3.4654,3.4667,3.4681,3.4676,3.4684,3.4708,3.4699,3.46,3.4586,3.4572,3.4561,3.471,3.471,3.4802,3.4803,3.4804]}]]